Hourly Data Report for February 27, 2006

TORONTO CITY
ONTARIO

43°40'00.000" N
79°24'00.000" W
112.50 m
6158355
71508
XTO

Download Data

Hourly Data (February 2006)
Hourly Data Report for February 27, 2006
TIME
LST
Temp Definition
°C
Dew Point Definition
°C
Rel Hum Definition
%
Precip. Amount Definition
mm

Wind Dir Definition
10's deg

Wind Spd Definition
km/h
Visibility Definition
km
Stn Press Definition
kPa
Hmdx Definition


Wind Chill Definition


Weather Definition


00:00 -9.5 -14.1 69   LegendMM LegendMM   100.76     LegendNANA
01:00 -10.5 -14.5 72   LegendMM LegendMM   100.72     LegendNANA
02:00 -10.6 -14.7 72   LegendMM LegendMM   100.73     LegendNANA
03:00 -10.1 -14.2 72   LegendMM LegendMM   100.69     LegendNANA
04:00 -10.2 -14.3 72   LegendMM LegendMM   100.61     LegendNANA
05:00 -10.0 -14.2 71   LegendMM LegendMM   100.55     LegendNANA
06:00 -10.0 -15.1 66   LegendMM LegendMM   100.51     LegendNANA
07:00 -9.7 -14.8 66   LegendMM LegendMM   100.49     LegendNANA
08:00 -9.3 -14.5 66   LegendMM LegendMM   100.46     LegendNANA
09:00 -7.1 -13.1 62   LegendMM LegendMM   100.41     LegendNANA
10:00 -6.1 -11.5 66   LegendMM LegendMM   100.38     LegendNANA
11:00 -4.4 -11.1 59   LegendMM LegendMM   100.31     LegendNANA
12:00 -4.6 -10.9 61   LegendMM LegendMM   100.23     LegendNANA
13:00 -4.2 -9.1 69   LegendMM LegendMM   100.11     LegendNANA
14:00 -4.3 -6.8 83   LegendMM LegendMM   100.00     LegendNANA
15:00 -4.1 -6.7 82   LegendMM LegendMM   99.90     LegendNANA
16:00 -2.6 -8.2 65   LegendMM LegendMM   99.84     LegendNANA
17:00 -3.4 -10.3 59   LegendMM LegendMM   99.83     LegendNANA
18:00
19:00 -4.6 -9.1 71   LegendMM LegendMM   99.89     LegendNANA
20:00 -6.0 -8.9 80   LegendMM LegendMM   99.93     LegendNANA
21:00 -7.6 -10.7 78   LegendMM LegendMM   100.03     LegendNANA
22:00 -8.5 -11.7 78   LegendMM LegendMM   100.09     LegendNANA
23:00 -8.8 -12.0 78   LegendMM LegendMM   100.11     LegendNANA

Notes on Data Quality.

Legend

  • E = Estimated
  • M = Missing
  • NA = Not Available*
  • [empty] = Indicates an unobserved value
Date modified: